Probability
0 0 0 0 0 0 0 0 0 0 0 0 0 0 0 0 0 0 0 0 0 0 1 2 2 1 0 0 0 0 0 0 0 0 0 0 0 0 0 0 0 0 0 0 0 0 0 0 0
0 0 0 0 0 0 0 0 0 0 0 0 0 0 0 0 0 0 0 0 0 0 0 1 1 1 0 0 0 0 0 0 0 0 0 0 0 0 0 0 0 0 0 0 0 0 0 0 0
0 0 0 0 0 0 0 0 0 0 0 0 0 0 0 0 0 0 0 0 0 0 0 0 1 1 0 0 0 0 0 0 0 0 0 0 0 0 0 0 0 0 0 0 0 0 0 0 0
0 0 0 0 0 0 0 0 0 0 0 0 0 0 0 0 0 0 0 0 0 0 0 0 1 1 0 0 0 0 0 0 0 0 0 0 0 0 0 0 0 0 0 0 0 0 0 0 0
0 0 0 0 0 0 0 0 0 0 0 0 0 0 0 0 0 0 0 1 1 1 0 0 0 0 0 0 0 0 0 0 0 0 0 0 0 0 0 0 0 0 0 0 0 0 0 0 0
0 0 0 0 0 0 0 0 0 0 0 0 0 0 0 0 0 0 1 2 2 2 1 0 0 0 0 0 0 0 0 0 0 0 0 0 0 0 0 0 0 0 0 0 0 0 0 0 0
0 0 0 0 0 0 0 0 0 0 0 0 0 0 0 0 0 1 2 3 3 3 2 1 0 0 0 0 0 0 0 0 0 0 0 0 0 0 0 0 0 0 0 0 0 0 0 0 0
0 0 0 0 0 0 0 0 0 0 0 0 0 0 0 0 0 1 3 4 3 3 3 2 0 0 0 0 0 0 0 0 0 0 0 0 0 0 0 0 0 0 0 0 0 0 0 0 0
0 0 0 0 0 0 0 0 0 0 0 0 0 0 0 0 0 2 4 4 4 3 3 1 1 0 0 0 0 0 0 0 0 0 0 0 0 0 0 0 0 0 0 0 0 0 0 0 0
0 0 0 0 0 0 0 0 0 1 0 0 0 0 0 0 1 2 4 4 3 3 2 1 1 0 0 0 0 0 0 0 0 0 0 0 0 0 0 0 0 0 0 0 0 0 0 0 0
0 0 0 0 0 0 0 0 0 0 0 0 0 0 0 0 1 2 3 3 3 3 2 1 0 0 0 0 0 0 0 0 1 2 1 0 0 0 0 0 0 0 0 0 0 0 0 0 0
0 0 0 0 0 0 0 0 0 0 0 0 0 0 0 0 1 1 1 2 3 3 2 1 0 0 0 0 0 0 0 1 2 2 2 1 0 0 0 0 0 0 0 0 0 0 0 0 0
0 0 0 0 0 0 0 0 1 1 1 0 0 0 0 0 0 0 0 1 1 2 2 1 0 0 0 0 0 0 0 1 2 1 1 1 0 0 0 0 0 0 0 0 0 0 0 0 0
0 0 0 0 0 0 0 1 2 2 1 0 0 0 0 0 0 0 0 0 0 1 1 0 0 0 0 0 0 0 0 1 2 1 0 0 0 0 0 0 0 0 0 0 0 0 0 0 0
0 0 0 0 0 0 0 2 2 1 1 0 0 0 0 0 0 0 0 0 0 0 0 0 0 0 0 0 0 0 0 1 2 1 0 0 0 0 0 0 0 0 0 0 0 0 0 0 0
0 0 0 0 0 0 0 1 1 1 0 0 0 0 0 0 0 0 0 0 0 0 0 0 0 0 0 0 0 0 0 0 1 1 0 0 0 0 0 0 0 0 0 0 0 0 0 0 0
0 0 0 0 0 0 0 0 0 0 0 0 0 0 0 0 0 0 0 0 0 0 0 0 0 0 0 0 0 0 0 0 0 0 0 0 0 0 0 0 0 0 0 0 0 0 0 0 0
0 0 0 0 0 0 0 0 0 0 0 0 0 0 0 0 0 0 0 0 0 0 0 0 0 0 0 0 0 0 0 0 0 0 0 0 0 0 0 0 0 0 0 0 0 0 0 0 0
0 0 0 0 0 0 0 0 0 0 0 0 0 0 0 0 0 0 0 0 0 0 0 0 0 0 0 0 0 0 0 0 0 0 0 0 0 0 0 0 0 0 0 0 0 0 0 0 0
0 0 0 0 0 0 0 0 0 0 0 0 0 0 0 0 0 0 0 0 0 0 0 0 0 0 0 0 0 0 0 0 0 0 0 0 0 0 0 0 0 0 0 0 0 0 0 0 0
0 0 0 0 0 0 0 0 0 0 0 0 0 0 0 0 0 0 0 0 0 0 0 0 0 0 0 0 0 0 0 0 0 0 0 0 0 0 0 0 0 0 0 0 0 0 0 0 0
0 0 0 0 0 0 0 0 0 0 0 0 0 0 0 0 0 0 0 0 0 0 0 0 0 0 0 0 0 0 0 0 0 0 0 0 0 0 0 0 0 0 0 0 0 0 0 0 0
0 0 0 0 0 0 0 0 0 0 0 0 0 0 0 0 0 0 0 0 0 0 0 0 0 0 0 0 0 0 0 0 0 0 0 0 0 0 0 0 0 0 0 0 0 0 0 0 0
0 0 0 0 0 0 0 0 0 0 0 0 0 0 0 0 0 0 0 0 0 0 0 0 0 0 0 0 0 0 0 0 0 0 0 0 0 0 0 0 0 0 0 0 0 0 0 0 0
0 0 0 0 0 0 0 0 0 0 0 0 0 0 0 0 0 0 0 0 0 0 0 0 0 0 0 0 0 0 0 0 0 0 0 0 0 0 0 0 0 0 0 0 0 0 0 0 0
0 0 0 0 0 0 0 0 0 0 0 0 0 0 0 0 0 0 0 0 0 0 0 0 0 0 0 0 0 0 0 0 0 0 0 0 0 0 0 0 0 0 0 0 0 0 0 0 0
0 0 0 0 0 0 0 0 0 0 0 0 0 0 0 0 0 0 0 0 0 0 0 0 0 0 0 0 0 0 0 0 0 0 0 0 0 0 0 0 0 0 0 0 0 0 0 0 0
0 0 0 0 0 0 0 0 0 0 0 0 0 0 0 0 0 0 0 0 0 0 0 0 0 0 0 0 0 0 0 0 0 0 0 0 0 0 0 0 0 0 0 0 0 0 0 0 0
0 0 0 0 0 0 0 0 0 0 0 0 0 0 0 0 0 0 0 0 0 0 0 0 0 0 0 0 0 0 0 0 0 0 0 0 0 0 0 0 0 0 0 0 0 0 0 0 0
0 0 0 0 0 0 0 0 0 0 0 0 0 0 0 0 0 0 0 0 0 0 0 0 0 0 0 0 0 0 0 0 0 0 0 0 0 0 0 0 0 0 0 0 0 0 0 0 0
Wind_Speed
9 5 2 3 3 2 3 2 2 3 3 3 4 3 4 5 4 5 4 3 3 1 2 3 6 7 8 8 8 7 8 8 9 9 8 8 8 9 8 8 8 7 8 8 8 8 8 8 8
6 3 2 2 5 6 5 4 4 2 3 3 4 4 4 5 5 4 3 3 2 2 3 4 8 8 8 8 8 7 8 8 8 8 8 8 8 8 8 8 8 7 8 8 8 8 8 8 7
3 2 1 2 4 5 5 4 4 4 4 3 4 4 4 4 4 3 3 2 2 3 4 6 8 9 9 9 8 8 8 8 8 8 8 8 8 8 8 7 7 7 7 7 7 7 8 8 7
2 2 1 3 5 3 2 3 4 6 4 3 4 5 5 5 5 4 3 2 3 4 4 6 8 8 9 9 9 8 8 8 8 8 8 8 8 8 7 7 7 7 7 7 7 7 7 7 7
1 2 4 4 5 3 2 2 4 4 4 4 4 5 5 4 5 4 3 3 4 4 4 5 7 8 8 8 9 8 8 9 8 8 8 8 8 8 8 7 7 7 7 7 7 7 6 6 6
2 2 5 7 7 5 3 2 3 4 4 4 3 5 5 5 6 4 3 3 4 4 4 5 6 7 8 8 8 8 8 8 8 8 8 8 8 8 8 8 8 7 6 6 6 6 6 6 6
2 2 4 6 7 5 3 2 2 3 4 3 1 3 5 4 5 3 3 4 4 4 4 4 4 4 6 7 8 8 8 8 8 8 8 8 8 8 8 8 8 7 6 6 6 6 6 6 6
1 3 4 5 7 5 4 4 2 2 3 3 2 2 3 3 3 2 3 4 4 4 4 3 3 3 3 4 7 7 8 8 8 8 8 7 7 7 7 7 7 7 7 6 6 6 6 5 6
0 3 5 5 6 5 6 5 3 3 5 4 4 4 4 3 3 4 4 4 4 4 3 3 3 3 3 3 4 5 6 7 6 6 7 4 3 3 4 6 7 7 6 6 6 6 5 4 4
1 3 3 1 2 6 7 5 5 5 5 4 4 5 4 4 4 4 4 3 3 3 3 3 3 3 3 2 2 2 2 3 3 3 3 2 2 3 3 5 6 6 5 5 6 5 3 2 2
4 3 3 3 3 6 6 5 3 4 3 1 1 3 3 4 3 3 3 2 2 2 2 2 2 2 2 1 1 1 1 2 2 2 2 2 2 2 2 1 2 2 3 2 3 2 2 2 2
5 4 3 3 3 3 5 5 4 3 3 3 2 3 3 3 3 2 2 2 2 2 3 2 2 2 2 2 1 1 1 1 1 2 2 1 1 1 1 1 2 2 2 2 2 2 3 3 3
6 5 5 6 6 6 6 5 4 3 3 3 4 4 4 3 2 2 2 2 2 2 2 2 2 1 1 1 1 1 1 1 1 1 1 2 1 1 1 1 2 2 2 2 2 2 2 3 3
7 8 6 4 4 3 5 4 3 1 1 3 4 4 3 3 3 3 3 2 2 2 2 2 1 1 1 1 0 0 1 1 1 1 2 2 1 1 1 1 2 2 2 2 2 3 3 2 2
7 7 6 3 2 2 3 3 1 1 2 3 3 3 3 3 3 3 3 3 2 2 2 2 1 1 1 0 0 0 0 0 1 1 1 1 1 1 1 1 2 2 2 3 2 3 2 2 2
4 4 4 3 2 0 3 3 2 2 3 3 2 2 2 3 3 3 3 3 3 3 2 2 1 1 0 0 1 0 0 1 1 1 1 2 2 2 1 1 2 2 2 2 2 2 2 2 3
3 4 4 2 3 0 3 3 2 3 3 3 2 1 1 2 3 3 3 3 4 3 3 2 2 1 1 0 1 1 1 1 1 1 1 2 2 2 2 2 2 2 2 2 2 3 3 3 3
5 5 4 3 2 2 3 3 2 3 3 3 2 1 1 1 2 3 3 3 3 3 3 3 2 2 1 0 1 1 1 1 1 1 2 2 2 2 2 2 3 3 2 2 3 3 3 3 3
5 6 5 2 1 0 3 3 3 4 4 3 3 2 1 1 2 2 2 2 3 3 3 3 3 3 2 1 0 0 0 0 1 1 2 2 2 2 2 1 2 2 2 3 3 3 3 3 3
7 7 4 3 1 0 2 4 4 4 5 4 4 3 2 2 1 2 2 2 2 3 3 3 3 2 2 2 1 0 0 0 1 1 1 2 3 3 2 2 2 2 2 2 2 2 2 2 3
5 4 4 3 1 1 2 4 5 4 4 4 4 4 3 2 2 2 2 3 3 3 3 3 3 2 2 2 1 1 0 0 0 1 1 2 2 3 2 2 2 2 2 2 2 2 2 3 2
3 2 3 3 3 1 2 3 4 5 5 5 5 4 4 3 3 2 2 3 3 3 3 2 3 2 2 1 1 1 1 1 1 1 1 2 2 2 2 3 2 2 2 2 2 2 2 3 2
4 2 3 2 2 1 0 4 3 3 5 6 6 5 4 3 3 3 3 3 3 3 3 2 2 2 2 1 0 0 1 1 2 2 2 2 2 2 3 3 3 2 2 2 3 2 2 2 3
4 3 3 2 1 2 2 4 3 4 5 4 4 4 4 3 3 3 3 3 3 3 2 2 2 2 2 1 0 1 1 1 1 2 2 2 2 2 3 3 3 3 2 3 3 2 2 2 3
1 2 1 1 1 2 1 4 6 2 3 4 4 4 3 3 3 3 3 2 3 3 2 2 1 2 2 1 1 1 1 1 1 2 2 2 2 2 4 3 3 3 3 3 3 2 3 2 3
1 1 1 1 2 1 3 6 3 0 1 3 3 3 3 2 2 3 3 3 3 3 2 2 2 2 1 1 1 1 1 1 1 2 2 2 1 2 3 3 3 3 3 3 3 2 3 2 3
2 1 2 2 1 2 3 4 5 2 3 4 4 4 4 3 2 3 2 3 3 3 2 2 2 2 1 2 1 1 1 1 1 1 2 1 2 2 2 2 3 3 3 3 2 2 3 3 3
2 2 2 2 2 3 3 4 3 4 6 5 5 5 4 3 2 2 2 3 3 2 2 2 1 1 1 1 1 1 1 1 1 1 1 2 2 2 2 3 3 3 3 3 2 2 2 3 3
2 2 2 2 1 2 3 3 2 4 5 6 6 5 5 4 3 3 3 2 2 2 2 1 1 1 1 0 0 1 1 1 1 1 2 2 2 2 3 3 3 3 3 3 2 2 2 2 3
2 2 4 2 2 2 3 5 1 3 3 4 5 4 4 4 3 3 3 2 2 2 1 1 1 1 1 1 0 0 1 1 1 1 2 2 2 2 2 3 3 3 3 2 3 3 3 3 3
Wind_Direction
326 323 265 232 206 181 183 158 156 134 116 75 58 74 80 53 30 62 35 22 15 63 80 65 56 80 86 85 84 88 91 91 90 91 90 91 90 87 83 79 75 76 76 76 75 72 72 72 68
326 311 238 229 218 193 176 171 159 121 103 111 79 74 80 70 38 41 25 6 25 80 82 65 54 69 78 81 80 84 87 89 87 84 84 85 85 84 81 75 71 72 73 71 72 72 70 69 66
312 300 249 198 211 209 170 151 142 118 98 112 98 60 51 49 29 21 14 9 69 87 83 66 54 65 68 70 73 77 82 86 86 83 81 81 78 76 74 69 65 65 69 70 69 70 66 64 63
274 180 186 206 179 207 185 140 140 139 115 74 111 98 86 43 8 9 32 65 89 88 84 76 58 63 66 65 65 68 74 81 83 81 78 79 76 70 67 64 58 57 63 66 67 66 65 65 62
233 198 181 185 187 161 107 115 139 141 122 92 112 108 96 54 24 39 64 80 88 86 81 86 58 59 61 62 62 63 70 75 79 78 76 74 71 66 60 56 57 55 58 62 63 61 61 62 60
160 190 197 192 176 162 127 97 147 124 112 95 96 112 97 54 32 38 66 85 88 83 75 82 59 56 58 59 59 60 65 68 71 74 72 70 68 65 59 53 50 51 54 54 57 58 58 55 52
181 170 187 183 175 177 158 133 134 136 114 79 36 114 110 57 28 38 84 90 85 83 74 73 74 69 61 56 54 53 56 59 62 65 65 62 59 58 56 49 44 44 51 53 51 52 54 53 49
56 141 158 179 181 178 150 141 111 86 101 64 27 97 98 44 31 67 93 92 86 77 68 62 61 63 69 69 57 52 53 54 57 59 57 58 60 59 51 44 42 41 45 48 48 47 45 47 45
184 168 177 183 182 158 152 147 120 86 104 87 66 53 51 72 96 98 90 83 76 66 57 54 49 47 53 60 62 63 59 55 61 64 59 57 61 60 55 41 36 36 38 41 40 43 41 38 46
56 172 171 128 163 144 139 131 130 136 116 107 95 74 73 90 103 101 88 80 76 63 47 48 46 45 50 54 64 62 62 61 58 60 63 54 44 37 32 48 35 31 32 39 36 30 30 354 5
70 113 130 106 103 131 134 117 111 147 119 116 116 96 91 96 101 100 91 75 76 65 47 45 46 47 45 44 46 38 42 46 44 47 42 43 45 38 24 27 35 27 24 24 30 14 356 351 347
97 79 104 106 99 127 134 135 110 79 63 49 72 97 102 101 91 79 67 44 54 48 31 24 31 42 40 36 40 39 43 44 42 34 29 38 42 27 17 10 360 358 358 355 351 346 350 343 336
105 107 87 90 99 103 107 111 112 80 55 76 93 95 91 87 80 68 61 50 35 32 18 7 7 33 50 48 31 33 31 37 47 34 24 22 32 18 14 2 353 343 341 334 332 333 334 333 339
118 115 106 94 104 100 107 105 114 86 86 106 108 99 90 76 63 51 36 27 11 1 346 342 356 14 55 57 44 30 17 21 36 41 16 12 6 355 351 351 342 334 328 323 317 321 317 322 329
126 118 100 70 107 144 149 105 147 135 141 123 112 100 80 60 47 33 17 1 346 339 338 332 324 10 76 80 195 12 11 347 34 37 5 2 358 348 345 342 339 334 326 318 313 317 318 320 325
141 146 127 63 48 188 202 181 144 134 153 142 127 107 84 59 39 26 13 2 356 347 347 343 340 340 84 114 166 143 55 29 28 24 5 1 358 347 339 343 339 333 329 326 325 320 321 325 326
153 158 147 113 44 117 184 191 154 155 178 180 161 131 91 56 30 19 5 356 357 352 352 353 348 343 310 113 140 129 96 46 23 24 10 2 5 354 343 343 340 339 338 340 336 334 332 329 328
165 156 152 146 48 104 167 197 178 174 196 201 181 167 120 26 4 6 2 359 360 359 4 6 360 357 341 75 109 117 80 44 24 12 7 3 357 347 341 347 348 346 345 342 338 335 336 330 326
141 141 136 119 32 163 187 222 232 192 201 213 205 207 217 288 347 6 7 7 6 8 6 8 3 6 1 353 33 145 312 350 14 12 360 354 346 339 343 343 344 344 337 332 332 332 331 337 331
131 131 123 116 28 230 200 247 245 213 218 222 218 219 231 260 313 349 351 2 356 355 353 354 350 350 2 351 337 323 295 298 1 4 358 360 353 343 336 335 334 330 320 325 323 327 323 332 336
97 130 144 142 125 120 269 238 220 216 220 224 226 229 237 246 271 305 325 334 335 332 327 338 337 336 349 356 7 44 132 62 22 341 358 3 355 349 347 336 329 332 327 316 319 313 314 312 326
109 81 137 149 177 133 305 255 209 211 219 219 223 226 235 243 257 279 298 310 310 309 308 318 326 335 343 349 353 29 329 309 326 332 339 355 357 347 344 337 332 335 328 319 315 317 303 301 302
102 106 114 119 119 173 217 260 226 185 225 221 216 224 233 243 250 261 277 290 300 303 306 313 317 337 340 345 331 282 330 339 350 350 349 346 354 352 350 349 340 333 326 325 321 313 304 297 295
121 121 101 93 178 237 230 248 250 200 214 208 200 213 228 241 252 265 287 301 304 315 310 310 317 329 334 331 312 258 269 310 343 335 332 342 355 356 358 354 344 336 331 329 325 322 318 312 308
139 170 159 175 204 229 137 244 257 229 223 223 209 203 214 231 243 257 276 291 302 317 319 316 307 307 314 312 279 267 267 270 292 302 315 326 344 347 351 348 346 339 333 331 331 333 326 314 308
143 271 232 246 253 262 178 239 259 201 255 236 233 229 233 233 239 255 268 279 290 302 310 310 298 289 296 297 293 307 300 291 310 311 312 320 330 330 335 343 344 339 339 339 339 332 323 320 311
146 137 10 99 80 274 243 264 274 211 234 226 223 223 229 228 236 257 274 280 282 285 287 284 277 282 281 280 288 310 313 304 300 309 314 323 327 326 329 329 336 339 338 334 333 339 333 328 318
1 137 159 178 205 265 276 254 249 210 213 208 210 214 219 221 235 259 273 275 275 276 276 277 272 273 284 301 312 300 306 306 302 308 321 327 324 329 332 334 330 330 336 331 331 331 334 330 327
143 151 146 127 273 244 272 260 205 218 202 204 210 214 214 220 235 252 265 276 278 280 273 254 247 255 284 296 301 304 316 324 326 313 315 319 324 327 327 322 325 327 329 335 332 322 324 318 318
257 215 188 205 207 236 263 272 106 226 227 217 221 221 223 233 244 254 263 272 271 266 258 244 236 237 253 253 221 248 292 312 319 311 315 321 320 319 320 319 323 324 324 329 329 322 311 305 306